Location: Staunton
(38.1490°N, 79.0720°W)
Time: 00:25:54
(UTC-05:00)

ISS - Pass Details

Date: 15 January 2021
Orbit: 418 x 421 km, 51.6° (Epoch: 23 January)

Event Time Altitude Azimuth Distance (km) Brightness Sun altitude
Rises 19:32:52 0° 215° (SW) 2,353 0.6 -25.6°
Reaches altitude 10° 19:35:00 10° 208° (SSW) 1,494 -0.6 -26.0°
Enters shadow 19:35:32 14° 205° (SSW) 1,289 -1.0 -26.1°
